Location: Middelsbur
(53.6609°N, 7.5020°E)
Time: 10:13:21
(UTC+00:00)

Cosmos 1825 - Visible Passes

Search period start: 21 October 2020 00:00
Search period end: 31 October 2020 00:00
Orbit: 504 x 507 km, 82.5° (Epoch: 20 October)

Date Brightness Start Highest point End Pass type
(mag) Time Alt. Az. Time Alt. Az. Time Alt. Az.
21 Oct 3.9 18:01:40 10° NNE 18:03:18 17° NE 18:03:18 17° NE visible
21 Oct 4.5 19:36:40 10° NNW 19:38:05 21° NNW 19:38:05 21° NNW visible
22 Oct 4.0 17:43:38 10° NNE 17:45:22 16° NE 17:45:22 16° NE visible
22 Oct 4.0 19:18:19 10° NNW 19:20:11 27° NNW 19:20:11 27° NNW visible
23 Oct 4.0 17:25:44 10° NNE 17:27:30 14° NE 17:27:30 14° NE visible
23 Oct 3.5 18:59:59 10° NNW 19:02:18 35° NNW 19:02:18 35° NNW visible
24 Oct 4.2 17:08:04 10° NE 17:09:20 11° ENE 17:09:41 11° ENE visible
24 Oct 2.8 18:41:42 10° N 18:44:29 47° N 18:44:29 47° N visible
24 Oct 5.6 20:19:11 10° WNW 20:19:18 10° WNW 20:19:18 10° WNW visible
25 Oct 2.3 18:23:25 10° N 18:26:45 58° NE 18:26:45 58° NE visible
25 Oct 5.3 20:00:10 10° NW 20:01:35 14° WNW 20:01:35 14° WNW visible
26 Oct 2.3 18:05:10 10° N 18:08:53 50° ENE 18:09:07 49° E visible
26 Oct 4.9 19:41:28 10° NW 19:43:57 18° W 19:43:57 18° W visible
27 Oct 2.6 17:46:57 10° N 17:50:33 39° ENE 17:51:38 32° ESE visible
27 Oct 4.5 19:22:53 10° NW 19:25:51 22° W 19:26:28 21° WSW visible
28 Oct 2.9 17:28:45 10° N 17:32:12 32° ENE 17:34:22 18° ESE visible
28 Oct 4.2 19:04:23 10° NNW 19:07:38 27° W 19:09:14 20° SW visible
29 Oct 3.2 17:10:36 10° N 17:13:49 26° ENE 17:17:02 10° SE visible
29 Oct 3.8 18:45:57 10° NNW 18:49:25 34° W 18:52:24 13° SSW visible
30 Oct 3.4 16:52:29 10° NNE 16:55:26 21° ENE 16:58:22 10° ESE visible
30 Oct 3.3 18:27:32 10° NNW 18:31:10 43° W 18:34:46 10° SSW visible
